SCP
2 3 3 3 2 2 2 2 3 3 3 2 1 1 1 1 1 1 1 1 1 1 1 1 0 0 0 0 0 0 0 0 0 0 0 0 0 0 0 0 0 0 0
2 3 4 3 2 2 2 2 3 3 3 2 2 1 1 1 1 1 1 1 1 1 1 1 1 0 0 0 0 0 0 0 0 0 0 0 0 0 0 0 0 0 0
2 3 4 3 2 2 2 3 3 4 3 3 2 1 1 1 1 1 1 1 1 1 1 1 1 1 0 0 0 0 0 0 0 0 0 0 0 0 0 0 0 0 0
2 3 3 3 2 2 2 2 3 4 3 3 2 2 1 1 1 1 1 1 1 1 1 1 1 1 1 1 1 0 0 0 0 0 0 0 0 0 0 0 0 0 0
2 2 3 3 2 2 2 2 3 4 3 3 3 2 2 1 1 1 1 1 1 1 1 1 1 1 1 1 1 0 0 0 0 0 0 0 0 0 0 0 0 0 0
1 2 2 2 2 2 2 2 2 3 3 3 3 2 2 2 1 1 1 1 1 1 1 1 1 1 1 1 1 0 0 0 0 0 0 0 0 0 0 0 0 0 1
1 1 1 2 2 2 2 2 2 2 3 3 3 3 2 2 1 1 1 1 1 1 1 1 1 1 1 1 0 0 0 0 0 0 0 0 0 0 0 0 0 1 1
1 1 1 1 2 2 2 2 2 2 2 2 2 2 2 2 2 1 1 1 1 1 1 1 1 1 0 0 0 0 0 0 0 0 0 0 0 0 0 0 0 1 1
1 1 1 1 1 2 2 2 2 2 2 2 2 2 2 2 2 1 1 1 1 1 1 1 1 1 0 0 0 0 0 0 0 0 0 0 0 0 0 0 0 1 1
0 1 1 1 1 2 2 2 2 2 2 2 2 2 1 1 1 1 1 1 1 1 1 1 1 1 1 1 0 0 0 0 0 0 0 0 0 1 0 0 1 1 1
0 0 0 1 1 1 1 2 2 2 2 2 2 1 1 1 1 1 1 1 1 1 1 1 1 1 1 1 0 0 0 0 0 0 0 0 0 1 1 1 1 1 1
0 0 0 0 0 1 1 1 1 2 2 2 2 1 1 1 1 1 1 1 1 1 1 1 1 1 1 1 0 0 0 0 0 0 0 0 0 1 1 1 1 2 1
0 0 0 0 0 0 0 1 1 1 2 2 2 1 1 1 1 1 1 1 1 1 1 1 1 1 1 0 0 0 0 0 0 0 0 0 0 1 1 1 1 1 1
0 0 0 0 0 0 0 0 1 1 2 2 2 2 1 1 1 1 1 1 1 1 1 1 1 1 1 0 0 0 0 0 0 0 0 0 0 0 1 1 1 1 1
0 0 0 0 0 0 0 0 0 1 2 2 2 2 2 1 1 1 1 0 0 0 1 1 1 1 0 0 0 0 0 0 0 0 0 0 0 0 0 1 1 1 1
0 0 0 0 0 0 0 0 0 0 1 2 2 2 2 1 1 0 0 1 0 0 0 1 1 1 0 0 0 0 0 0 0 0 0 0 0 0 0 0 1 1 1
0 0 0 0 0 0 0 0 0 0 1 2 2 2 2 1 1 0 0 0 0 0 1 1 1 1 1 0 0 0 0 0 0 0 0 0 0 0 0 0 1 1 1
0 0 0 0 0 0 0 0 0 0 0 1 2 2 2 1 0 0 0 0 0 0 1 1 1 1 0 0 0 0 0 0 0 0 0 0 0 0 0 0 0 1 1
0 0 0 0 0 0 0 0 0 0 0 1 2 2 2 1 1 0 0 0 0 0 0 1 1 1 0 0 0 0 0 0 0 0 0 0 0 0 0 0 0 0 1
0 0 0 0 0 0 0 0 0 0 0 0 1 2 2 1 1 0 0 0 0 0 0 1 1 1 0 0 0 0 0 0 0 0 0 0 0 0 0 0 0 0 0
0 0 0 0 0 0 0 0 0 0 0 0 0 1 1 1 1 1 0 0 0 0 0 0 0 0 0 0 0 0 0 0 0 0 0 0 0 0 0 0 0 1 1
0 0 0 0 0 0 0 0 0 0 0 0 0 1 1 1 1 1 0 0 0 0 0 0 0 0 0 0 0 0 0 0 0 0 0 0 0 0 0 0 1 1 1
0 0 0 0 0 0 0 0 0 0 0 0 0 0 1 1 1 1 0 0 0 0 0 0 0 0 0 0 0 0 0 0 0 0 0 0 0 0 0 1 1 1 1
0 0 0 0 0 0 0 0 0 0 0 0 0 0 0 1 1 1 1 0 0 0 0 0 0 0 0 0 0 0 0 0 0 0 0 0 0 0 1 1 1 1 1
0 0 0 0 0 0 0 0 0 0 0 0 0 0 0 0 1 1 0 0 0 0 0 0 0 0 0 0 0 0 0 0 0 0 0 0 0 0 1 1 1 1 1
0 0 0 0 0 0 0 0 0 0 0 0 0 0 0 0 0 0 0 0 0 0 0 0 0 0 0 0 0 0 0 0 0 0 0 0 0 0 0 1 1 1 1
Wind_Speed
6 8 10 10 10 10 11 11 12 12 12 11 11 11 11 10 10 10 10 10 10 10 10 11 11 11 11 12 12 12 12 12 12 11 10 10 10 11 11 11 10 7 12
6 7 9 9 9 10 11 12 12 12 12 11 11 11 11 11 11 10 10 10 10 10 10 10 10 11 11 11 11 11 11 11 11 11 10 8 8 9 10 10 9 6 11
6 6 7 9 9 10 11 12 12 12 13 13 12 11 11 11 10 10 10 10 10 10 10 10 10 10 11 11 11 10 10 10 10 10 9 5 5 8 9 9 9 9 10
6 6 7 10 10 10 11 12 12 12 13 12 12 12 11 11 10 10 10 10 10 10 10 10 10 10 11 10 10 10 10 9 9 8 5 4 4 6 8 8 8 8 8
6 7 7 11 11 11 11 12 12 12 13 12 12 12 12 12 11 10 11 10 10 10 9 10 10 10 10 10 10 9 9 9 9 7 4 4 3 6 7 8 7 7 7
7 8 8 11 12 12 12 12 12 12 12 12 12 12 12 12 11 11 11 11 10 10 10 10 9 9 10 10 10 9 10 10 8 5 4 4 3 5 7 7 7 6 6
7 8 8 12 12 13 13 13 13 13 13 13 12 12 12 12 12 11 11 11 11 10 10 10 10 9 9 9 9 9 10 9 6 4 4 3 3 4 5 6 6 6 6
7 7 9 12 13 13 13 14 14 13 13 13 12 12 12 13 12 12 11 11 11 10 9 9 9 9 9 9 9 9 9 8 6 5 4 3 4 4 4 5 5 5 5
8 8 8 8 9 12 13 14 14 14 13 13 13 13 13 12 12 13 12 11 11 10 10 9 9 9 9 8 8 8 8 8 5 3 4 3 4 4 4 4 4 4 4
8 9 9 9 8 8 8 12 14 14 14 13 13 13 13 12 12 12 12 11 11 11 10 10 9 9 9 8 8 8 8 6 4 3 2 3 5 3 3 3 2 3 3
9 9 8 9 9 8 7 9 10 11 13 12 10 13 11 6 6 7 11 12 11 10 10 10 9 9 9 8 8 8 7 3 3 3 2 5 4 3 2 2 2 2 2
9 8 8 8 8 7 6 6 5 6 6 7 6 7 6 5 6 7 10 12 12 11 10 10 10 9 7 4 5 6 3 3 3 3 3 6 5 3 2 3 2 2 2
5 7 8 7 7 7 5 4 4 3 4 6 7 7 5 5 5 5 4 6 7 8 5 6 6 5 4 3 3 3 3 2 2 2 3 6 5 4 3 3 2 2 2
6 6 7 7 6 6 5 4 4 4 4 5 6 7 5 4 5 4 4 4 4 3 4 4 3 4 4 4 3 4 4 2 2 2 3 6 5 4 3 2 1 1 1
5 6 6 6 6 6 5 4 5 4 4 5 5 5 6 4 4 4 3 4 4 4 3 3 3 4 4 4 4 3 3 3 2 2 2 5 6 5 4 3 2 1 0
5 5 5 6 6 6 5 5 4 4 4 4 4 5 6 4 4 4 4 4 4 4 3 3 3 2 2 2 3 4 3 3 2 2 2 3 5 6 5 4 2 2 1
4 4 5 5 6 6 6 5 4 4 4 4 4 5 5 5 4 4 4 4 4 4 4 3 3 2 2 3 3 4 3 3 2 2 2 2 2 4 5 4 3 2 2
3 4 5 5 6 6 5 5 3 4 4 4 4 4 5 5 5 4 4 4 4 4 4 3 3 3 3 3 2 3 2 2 3 2 2 2 2 2 4 5 4 3 3
3 3 4 5 5 5 5 4 4 3 4 4 3 4 5 5 5 3 3 4 4 4 4 3 3 2 3 3 3 2 2 2 2 2 2 2 2 2 2 4 5 4 4
3 4 4 4 5 4 3 3 3 4 4 4 4 4 5 5 5 3 3 4 4 3 4 3 3 3 2 3 3 3 2 2 2 1 1 1 2 2 2 3 3 3 5
4 4 4 4 5 4 3 3 3 4 4 4 4 5 6 5 5 4 3 3 4 3 4 4 3 3 2 3 2 2 2 2 1 1 1 1 1 2 3 3 3 2 2
2 3 3 4 4 4 3 2 1 2 2 2 3 5 6 6 5 4 4 3 3 3 4 4 3 2 2 2 1 2 2 2 1 2 1 1 1 2 3 4 3 3 3
2 2 3 3 4 4 4 3 3 2 2 3 4 5 5 6 5 4 4 3 3 3 3 4 3 2 2 2 1 0 1 2 3 2 2 1 1 1 2 2 3 4 4
1 2 2 3 4 4 4 3 3 3 3 4 3 4 5 5 5 5 4 4 3 2 3 3 3 2 2 2 2 1 2 2 2 3 2 1 1 2 2 3 3 3 3
0 1 2 2 3 3 3 3 3 3 2 3 3 4 5 5 4 5 4 3 3 3 3 4 3 3 2 2 2 2 2 2 3 3 4 3 3 2 2 3 3 3 3
0 1 1 2 3 3 3 2 2 2 3 4 5 4 4 4 4 5 5 4 4 3 4 4 4 4 3 3 3 2 2 2 2 2 4 4 5 4 3 3 3 3 3
Wind_Direction
334 333 346 1 21 30 34 38 43 43 43 48 50 50 49 51 57 62 62 62 62 63 64 65 64 66 66 65 66 66 66 66 65 66 67 68 73 77 81 80 77 73 80
326 333 350 7 24 34 36 39 40 41 42 44 48 48 47 49 54 59 61 58 57 60 65 66 65 66 66 66 66 66 67 66 63 59 55 57 64 73 79 82 82 84 84
348 347 350 16 30 38 40 41 41 41 42 42 44 46 46 46 51 57 58 55 55 56 61 66 65 64 64 66 66 65 65 65 62 55 50 44 57 74 80 83 85 87 86
357 357 359 27 33 39 41 41 41 40 41 40 41 43 44 44 50 55 53 53 53 55 61 66 66 64 63 65 65 64 63 60 56 51 43 34 39 74 81 82 86 87 88
8 4 5 33 37 39 41 42 42 39 39 40 40 40 41 41 44 50 49 48 50 51 56 63 63 62 62 62 62 63 63 59 52 47 38 32 31 68 76 79 80 85 90
15 7 10 36 39 39 40 40 41 40 39 38 39 38 37 37 41 46 45 43 45 49 51 53 58 60 61 59 58 60 60 57 51 42 36 29 29 64 74 79 79 83 91
18 12 12 35 38 39 39 39 38 39 38 38 37 36 36 35 36 42 43 41 41 45 48 51 50 56 57 57 56 55 54 51 47 40 32 22 24 56 75 78 80 80 89
26 20 18 24 35 38 38 39 37 37 37 36 36 36 35 34 33 34 38 38 37 38 42 48 48 49 53 55 55 52 48 45 43 33 24 12 18 46 68 74 78 81 86
31 27 19 16 22 32 37 37 35 33 34 35 35 35 34 33 32 32 31 32 34 34 38 41 46 47 47 50 50 49 47 41 39 24 15 4 13 37 59 71 74 85 90
33 27 20 16 17 18 23 33 32 30 30 31 32 32 33 31 29 30 26 24 28 30 33 36 42 44 41 41 44 45 43 36 29 19 6 356 6 20 44 63 69 88 93
26 22 18 17 16 14 20 27 26 26 26 26 24 27 28 20 19 23 20 21 21 26 29 33 38 38 38 33 33 37 38 28 19 9 356 357 2 6 36 75 78 78 86
15 13 13 14 14 14 19 19 15 21 17 19 17 17 17 17 18 23 20 21 19 22 25 29 34 36 34 25 23 27 28 20 21 1 354 0 1 8 47 72 83 79 77
14 12 9 10 15 19 14 16 15 14 14 15 15 16 13 19 17 19 15 14 11 16 19 19 27 22 20 18 14 11 12 17 10 350 347 358 360 11 33 53 63 72 85
23 15 9 10 16 18 18 17 18 14 16 15 11 15 18 19 17 11 15 6 7 5 7 14 17 12 12 12 15 13 8 3 356 343 339 357 1 3 2 10 30 40 77
24 14 9 12 18 15 18 17 21 15 17 12 10 14 17 20 14 9 9 9 3 1 4 5 10 10 8 4 4 6 1 355 350 346 343 356 357 354 348 335 331 315 322
21 11 9 19 18 19 21 18 12 10 10 15 13 11 14 17 14 8 10 8 2 356 354 356 0 3 360 356 353 352 344 338 340 343 342 348 352 354 343 337 327 326 317
17 13 15 25 22 21 20 14 11 6 9 18 11 9 13 15 14 10 8 7 356 348 349 360 6 7 14 3 348 341 338 334 332 333 340 346 343 351 346 333 319 322 317
23 20 16 24 23 21 18 10 5 7 11 15 8 6 11 11 11 14 9 2 352 351 354 5 4 6 4 356 338 326 328 325 322 325 336 349 348 346 343 345 332 326 329
26 24 24 23 22 16 13 11 9 10 17 10 7 9 6 8 9 10 5 356 354 355 356 3 1 2 351 344 325 317 316 310 303 313 325 337 345 342 335 342 346 342 336
29 30 31 25 20 12 12 13 15 19 15 10 8 8 7 5 6 9 6 359 356 358 356 356 358 355 342 331 316 315 300 290 288 290 306 328 341 351 355 352 345 342 344
26 26 23 22 11 10 5 2 359 359 356 2 3 5 6 4 3 6 6 1 358 358 348 345 343 344 348 344 340 328 311 294 290 301 301 303 337 351 2 356 346 341 328
20 17 19 16 7 3 359 346 334 327 337 344 350 357 2 2 360 2 3 358 351 349 352 352 352 346 334 1 350 326 323 325 325 304 286 282 316 346 348 340 329 337 334
17 7 10 3 4 2 1 1 358 356 343 351 351 351 353 354 355 353 349 349 348 348 342 335 343 346 316 307 341 328 304 289 312 280 267 270 302 324 317 318 325 326 320
351 5 8 5 5 3 7 18 14 0 343 334 329 331 336 341 344 347 342 343 338 333 328 321 341 318 296 289 293 297 268 262 277 295 280 262 286 296 295 310 309 306 306
45 4 353 2 358 358 3 11 14 358 333 322 325 333 338 334 338 339 337 335 332 323 316 312 315 306 282 271 278 284 294 291 254 256 278 287 291 266 275 286 287 287 294
6 5 358 359 348 348 352 354 1 343 332 331 333 334 334 330 327 330 331 333 324 315 309 305 296 289 276 274 278 264 253 255 261 262 268 279 283 277 276 267 266 273 283